Location: Albany
(35.0170°S, 117.8920°E)
Time: 22:55:15
(UTC+08:00)

SR - All Passes

Search period start: 23 January 2021 00:00
Search period end: 02 February 2021 00:00
Orbit: 575 x 880 km, 66.7° (Epoch: 22 January)

Date Brightness Start Highest point End Pass type
(mag) Time Alt. Az. Time Alt. Az. Time Alt. Az.
23 Jan - 02:14:04 10° SSW 02:18:22 76° ESE 02:22:36 10° NNE visible
23 Jan - 15:01:39 10° NE 15:03:39 12° ENE 15:05:37 10° E daylight
23 Jan - 16:39:39 10° NNW 16:45:12 75° WSW 16:50:21 10° SSE daylight
24 Jan - 01:24:41 10° S 01:28:33 31° ESE 01:32:20 10° ENE visible
24 Jan - 03:07:19 10° WSW 03:10:16 18° WNW 03:13:12 10° NNW visible
24 Jan - 15:50:07 10° N 15:55:30 52° ENE 16:00:30 10° SE daylight
24 Jan - 17:33:52 10° W 17:37:45 20° SW 17:41:27 10° S daylight
25 Jan - 00:36:04 10° SSE 00:38:30 15° SE 00:40:54 10° E visible
25 Jan - 02:16:40 10° SW 02:20:46 45° WNW 02:24:49 10° N visible
25 Jan - 15:01:31 10° NNE 15:05:54 24° ENE 15:10:04 10° SE daylight
25 Jan - 16:42:41 10° NW 16:47:46 38° WSW 16:52:31 10° S daylight
26 Jan - 01:26:49 10° SSW 01:31:06 69° ESE 01:35:19 10° NNE visible
26 Jan - 14:15:10 10° ENE 14:16:27 11° ENE 14:17:43 10° E daylight
26 Jan - 15:52:25 10° NNW 15:57:58 81° WSW 16:03:05 10° SSE daylight
26 Jan - 17:39:32 10° WSW 17:40:38 11° SW 17:41:43 10° SW daylight
27 Jan - 00:37:29 10° S 00:41:15 29° ESE 00:44:57 10° ENE visible
27 Jan - 02:19:54 10° WSW 02:23:01 20° WNW 02:26:08 10° NNW visible
27 Jan - 15:02:58 10° N 15:08:16 48° ENE 15:13:12 10° SE daylight
27 Jan - 16:46:28 10° WNW 16:50:28 21° SW 16:54:16 10° S daylight
27 Jan - 23:49:00 10° SSE 23:51:12 14° SE 23:53:21 10° E visible
28 Jan - 01:29:22 10° SW 01:33:31 50° WNW 01:37:36 10° N visible
28 Jan - 14:14:29 10° NNE 14:18:41 23° ENE 14:22:40 10° ESE daylight
28 Jan - 15:55:23 10° NW 16:00:30 41° WSW 16:05:17 10° SSE daylight
29 Jan - 00:39:33 10° SSW 00:43:50 63° ESE 00:48:02 10° NE visible
29 Jan - 15:05:12 10° NNW 15:10:43 86° WSW 15:15:49 10° SSE daylight
29 Jan - 16:51:45 10° WSW 16:53:20 11° SW 16:54:53 10° SSW daylight
29 Jan - 23:50:18 10° S 23:53:57 26° SE 23:57:34 10° ENE visible
30 Jan - 01:32:29 10° WSW 01:35:47 22° WNW 01:39:03 10° NNW visible
30 Jan - 14:15:50 10° N 14:21:02 44° ENE 14:25:53 10° SE daylight
30 Jan - 15:59:04 10° WNW 16:03:11 22° SW 16:07:06 10° S daylight
30 Jan - 23:02:00 10° SSE 23:03:52 13° SE 23:05:45 10° ESE visible
31 Jan - 00:42:04 10° SW 00:46:15 55° WNW 00:50:23 10° N visible
31 Jan - 13:27:28 10° NNE 13:31:28 21° ENE 13:35:15 10° ESE daylight
31 Jan - 15:08:06 10° NW 15:13:15 44° WSW 15:18:03 10° SSE daylight
31 Jan - 23:52:19 10° SSW 23:56:33 57° ESE 00:00:43 10° NE visible
01 Feb - 14:17:59 10° NNW 14:23:28 88° ENE 14:28:31 10° SSE daylight
01 Feb - 16:04:05 10° WSW 16:06:02 12° SW 16:07:56 10° SSW daylight
01 Feb - 23:03:07 10° S 23:06:40 24° SE 23:10:09 10° ENE visible
